Погода в Ларневске

Россия / Брянская область     53°08′55″N   31°30′53″E
темп.,
°C
ветер,
м/с
пор.,
м/с
влажн.,
%
обл.,
%
осадки,
мм/ч
давл.,
гПа
погр.,
м
5 марта, пт
пт500:00−1сз489299 0.0 1008334
03:00−4сз359383 0.0 1009116
06:00−7сз349427 0.0 101174
09:00−7сз369413 0.0 1012192
12:00−3сз358131 0.0 1014578
15:00−1зсз357749 0.0 1014877
18:00−2зсз368598 0.2 1015176
21:00−6зсз348490 0.3 101779
6 марта, сб
сб600:00−7сз468650 0.0 1018129
03:00−8сз368525 0.0 102097
06:00−9сз34870 0.0 102080
09:00−8сз368615 0.0 1022173
12:00−3сз356826 0.0 1022959
15:00−2сз466530 0.1 10211557
18:00−5зсз347738 0.1 102162
21:00−6зюз478521 0.1 102299
7 марта, вс
вс700:00−7зюз4118050 0.0 1020218
03:00−6юз6138260 0.0 1017442
06:00−4юз81780100 0.0 1012713
09:00−2зюз101885100 0.1 10081038
12:000з111892100 0.3 10051378
15:00−1сз81286100 1.9 10071216
18:00−3зсз497699 0.1 1007276
21:00−4зюз5117570 0.1 1007275
8 марта, пн
пн800:00−4зюз5128798 0.1 1005396
03:00−5з6147851 0.1 1005479
06:00−6зсз613852 0.0 1006582
09:00−7ссз4107747 0.2 1009748
12:00−5ссз456521 0.0 1011992
15:00−4зсз466811 0.0 10111148
18:00−5сз228060 0.0 101124
21:00−7зсз118578 0.0 101321
9 марта, вт
вт900:00−7ссз238788 0.0 101362
03:00−8с589392 0.1 1015440
06:00−10с599198 0.1 1016456
09:00−12с698997 0.1 1019629
12:00−10с5882100 0.0 1022690
15:00−8с577466 0.0 1023856
18:00−9ссз35830 0.0 1023192
21:00−11зсз22870 0.0 102521